[[{"header":{"parameterUnit":"m.s-1","parameterCategory":1,"la1":30.2991,"la2":30.254,"lo1":-89.0895,"lo2":-89.0444,"dy":0.0017,"dx":0.0017,"nx":28,"ny":28,"refTime":"2023-09-29T21:00:00:Z","depth":0,"parameterNumber":2,"parameterNumberName":"U-component_of_WINDS"},"data":[0,0,0,0,0,0,0,0,0,0,0,0,0,0,0,0,0,0,0,0,0,0,0,0,0,0,0,0,0,0,0,0,0,0,0,0,0,0,0,0,0,0,0,0,0,0,0,0,0,0,0,0,0,0,0,0,0,0,-5.104,-5.104,0,-5.1027,-5.1027,-5.1026,-5.0917,-5.0914,-5.0911,-5.0909,-5.0898,-5.09,-5.0902,0,0,0,0,0,0,0,0,0,0,0,0,0,-5.0973,-5.0975,-5.104,-5.104,-5.1039,-5.1027,-5.1027,-5.1026,-5.0917,-5.0914,-5.091,-5.0907,-5.0897,-5.0899,-5.0902,0,0,0,0,0,0,0,0,0,0,0,0,0,-5.0986,-5.0976,-5.104,-5.0983,-5.0978,-5.1027,-5.1027,-5.1026,-5.0918,-5.0914,-5.091,-5.0906,-5.0896,-5.0899,-5.0903,-5.1005,0,0,-5.0913,-5.0914,0,0,0,0,0,0,0,0,-5.0985,-5.0988,-5.0992,-5.0987,-5.0981,-5.0969,-5.0999,-5.1019,-5.0919,-5.0941,-5.0909,-5.0904,-5.0925,-5.0926,-5.0932,-5.1005,-5.1004,-5.0913,-5.0915,-5.0917,-5.0918,0,0,0,0,0,0,0,-5.0984,-5.0988,-5.1035,-5.0992,-5.0986,-5.096,-5.0957,-5.1002,-5.0956,-5.0939,-5.0931,-5.093,-5.0921,-5.0929,-5.0931,-5.1004,-5.0913,-5.0916,-5.0918,-5.0919,-5.1163,-5.1167,0,0,0,0,0,0,-5.0991,-5.0988,-5.1035,-5.1034,-5.0973,-5.0964,-5.0961,-5.0977,-5.0955,-5.0948,-5.0934,-5.0925,-5.0925,-5.0927,-5.093,-5.1051,-5.0917,-5.092,-5.0922,-5.1159,-5.1164,-5.1169,0,0,0,0,0,0,-5.099,-5.0996,-5.1035,-5.1009,-5.1012,-5.097,-5.0989,-5.0979,-5.0987,-5.0952,-5.0943,-5.095,-5.0922,-5.0926,-5.0988,-5.1049,-5.0921,-5.0924,-5.1153,-5.116,-5.1167,-5.1292,0,0,0,0,0,0,-5.0988,-5.0996,-5.1034,-5.1011,-5.1014,-5.1093,-5.0992,-5.0982,-5.0993,-5.0981,-5.0965,-5.0958,-5.0919,-5.0983,-5.0991,-5.1051,-5.0927,-5.1148,-5.1157,-5.1164,-5.1282,-5.1302,-5.1319,0,0,0,0,0,-5.0986,-5.1069,-5.1036,-5.1043,-5.106,-5.1096,-5.1098,-5.1051,-5.0998,-5.1036,-5.1014,-5.0959,-5.1041,-5.0991,-5.0999,-5.106,-5.1144,-5.1154,-5.1164,-5.1274,-5.1298,-5.1319,0,0,0,0,0,0,-5.1101,-5.1065,-5.1028,-5.1106,-5.1105,-5.1078,-5.1124,-5.1078,-5.1092,-5.1081,-5.1023,-5.1021,-5.1092,-5.1082,-5.1027,-5.116,-5.1083,-5.1095,-5.1164,-5.1187,-5.1205,-5.1206,-5.093,0,0,0,0,0,-5.1135,-5.1167,-5.1134,-5.1206,-5.1208,-5.1167,-5.1181,-5.1145,-5.1142,-5.1141,-5.1123,-5.1123,-5.1149,-5.1167,-5.1189,-5.128,-5.1276,-5.1327,-5.1345,-5.1361,-5.1372,-5.1422,-5.1445,-5.1202,-5.1202,-5.1202,0,0,-5.1207,-5.1191,-5.1215,-5.1229,-5.1224,-5.126,-5.1167,-5.1208,-5.1234,-5.1147,-5.1205,-5.1193,-5.1189,-5.1267,-5.13,-5.1261,-5.1439,-5.1373,-5.1386,-5.1389,-5.1435,-5.1458,-5.1479,-5.1209,-5.1207,-5.1206,0,0,-5.1355,-5.1346,-5.1405,-5.1403,-5.1397,-5.1369,-5.1384,-5.1364,-5.1352,-5.1409,-5.1346,-5.1377,-5.1422,-5.1423,-5.1429,-5.1581,-5.1532,-5.159,-5.1687,-5.1736,-5.1755,-5.1772,-5.1828,-5.1849,-5.1601,-5.1601,-5.1602,0,-5.1444,-5.1494,-5.1442,-5.1488,-5.1498,-5.1421,-5.1482,-5.1482,-5.1484,-5.1493,-5.1449,-5.1506,-5.1497,-5.1576,-5.1613,-5.162,-5.1637,-5.1591,-5.1757,-5.1773,-5.1788,-5.1841,-5.1862,-5.1609,-5.1608,-5.1607,-5.1606,0,-5.1606,-5.1642,-5.1691,-5.1695,-5.171,-5.1764,-5.1721,-5.1743,-5.1707,-5.1684,-5.1745,-5.1733,-5.1752,-5.1768,-5.1733,-5.1843,-5.1819,-5.1767,-5.1688,-5.1819,-5.1868,-5.1888,-5.1619,-5.1616,-5.1614,-5.1613,0,0,-5.1824,-5.1801,-5.182,-5.1822,-5.181,-5.1838,-5.1889,-5.1908,-5.1928,-5.1933,-5.1976,-5.2017,-5.197,-5.1977,-5.1941,-5.1985,-5.2109,-5.1927,-5.1926,-5.1963,-5.2232,-5.2272,-5.2296,-5.2076,-5.2079,-5.2082,-5.2233,0,-5.1968,-5.2053,-5.201,-5.2101,-5.2135,-5.2064,-5.2109,-5.2108,-5.209,-5.2117,-5.2096,-5.2127,-5.2061,-5.2065,-5.2105,-5.2085,-5.2162,-5.2074,-5.2117,-5.2119,-5.2121,-5.2321,-5.2363,-5.2506,-5.2251,-5.2255,-5.2257,0,-5.2147,-5.216,-5.2255,-5.224,-5.2252,-5.2294,-5.2308,-5.2335,-5.2333,-5.2317,-5.2327,-5.2282,-5.2333,-5.2255,-5.2326,-5.2267,-5.2282,-5.2276,-5.228,-5.2283,-5.2197,-5.2331,-5.255,-5.2572,-5.2286,-5.2284,-5.2282,0,-5.23,-5.234,-5.2403,-5.2407,-5.239,-5.2421,-5.2416,-5.241,-5.2425,-5.2439,-5.2448,-5.2468,-5.2479,-5.2496,-5.2458,-5.2405,-5.2536,-5.2454,-5.2525,-5.2526,-5.2556,-5.2555,-5.2782,-5.2564,-5.2564,-5.2564,-5.2563,0,-5.2465,-5.2527,-5.2472,-5.251,-5.2578,-5.2528,-5.2597,-5.2584,-5.258,-5.2616,-5.2556,-5.2592,-5.2539,-5.257,-5.2541,-5.2606,-5.2611,-5.2601,-5.2592,-5.2607,-5.2608,-5.2616,-5.2606,-5.2569,-5.2568,-5.2567,-5.2566,0,-5.2647,-5.2612,-5.2676,-5.2656,-5.2652,-5.2703,-5.2686,-5.2722,-5.27,-5.2747,-5.2756,-5.2721,-5.2755,-5.2719,-5.275,-5.2731,-5.2819,-5.2795,-5.2819,-5.2813,-5.2887,-5.2881,-5.3128,-5.3158,-5.2921,-5.2923,-5.2925,0,-5.2755,-5.2801,-5.2786,-5.2806,-5.2804,-5.2837,-5.2852,-5.2806,-5.2824,-5.2828,-5.2864,-5.2893,-5.2913,-5.2971,-5.295,-5.2974,-5.2952,-5.3037,-5.2955,-5.2969,-5.2955,-5.2953,-5.2959,-5.3054,-5.3056,-5.3059,-5.3061,0,-5.2952,-5.2933,-5.2957,-5.2976,-5.2996,-5.3009,-5.3017,-5.3037,-5.2989,-5.3014,-5.3047,-5.3064,-5.3096,-5.3126,-5.3145,-5.3141,-5.3094,-5.3087,-5.3105,-5.312,-5.3133,-5.3129,-5.2866,-5.3081,-5.3079,-5.3078,-5.3076,-5.3076,-5.3101,-5.3139,-5.3136,-5.3165,-5.3167,-5.3177,-5.321,-5.3193,-5.322,-5.3243,-5.3214,-5.3256,-5.3256,-5.3276,-5.3278,-5.3312,-5.3276,-5.3302,-5.3309,-5.3316,-5.3328,-5.3127,-5.3315,-5.3314,-5.3314,-5.3313,-5.3313,0,-5.3296,-5.3291,-5.3318,-5.3332,-5.3357,-5.331,-5.3317,-5.3341,-5.3379,-5.3382,-5.3404,-5.3445,-5.3475,-5.3457,-5.3483,-5.3513,-5.3493,-5.3522,-5.352,-5.352,-5.3357,-5.334,-5.3538,-5.3538,-5.3538,-5.3538,-5.3538,-5.3538,-5.3401,-5.3464,-5.3445,-5.351,-5.3504,-5.3545,-5.3553,-5.3563,-5.3566,-5.3614,-5.3638,-5.3626,-5.3622,-5.3647,-5.3673,-5.3667,-5.3681,-5.3718,-5.3705,-5.3553,-5.3531,-5.351,-5.3493,-5.3721,-5.3721,-5.3865,-5.3866,-5.3867]},{"header":{"parameterUnit":"m.s-1","parameterCategory":1,"la1":30.2991,"la2":30.254,"lo1":-89.0895,"lo2":-89.0444,"dy":0.0017,"dx":0.0017,"nx":28,"ny":28,"refTime":"2023-09-29T21:00:00:Z","depth":0,"parameterNumber":3,"parameterNumberName":"V-component_of_WINDS"},"data":[0,0,0,0,0,0,0,0,0,0,0,0,0,0,0,0,0,0,0,0,0,0,0,0,0,0,0,0,0,0,0,0,0,0,0,0,0,0,0,0,0,0,0,0,0,0,0,0,0,0,0,0,0,0,0,0,0,0,-0.3807,-0.3807,0,-0.3803,-0.3803,-0.3802,-0.3772,-0.3771,-0.377,-0.377,-0.3768,-0.3768,-0.3769,0,0,0,0,0,0,0,0,0,0,0,0,0,-0.3791,-0.3791,-0.3807,-0.3807,-0.3807,-0.3803,-0.3803,-0.3802,-0.3772,-0.3771,-0.377,-0.3769,-0.3768,-0.3768,-0.3769,0,0,0,0,0,0,0,0,0,0,0,0,0,-0.3793,-0.3791,-0.3807,-0.3791,-0.379,-0.3803,-0.3803,-0.3802,-0.3772,-0.3771,-0.377,-0.3769,-0.3767,-0.3768,-0.3769,-0.3798,0,0,-0.3772,-0.3773,0,0,0,0,0,0,0,0,-0.3793,-0.3794,-0.3793,-0.3792,-0.3791,-0.3787,-0.3796,-0.3801,-0.3773,-0.3779,-0.377,-0.3768,-0.3775,-0.3775,-0.3777,-0.3798,-0.3798,-0.3772,-0.3773,-0.3773,-0.3774,0,0,0,0,0,0,0,-0.3793,-0.3794,-0.3805,-0.3793,-0.3792,-0.3785,-0.3784,-0.3797,-0.3784,-0.3778,-0.3776,-0.3776,-0.3774,-0.3776,-0.3777,-0.3798,-0.3772,-0.3773,-0.3774,-0.3774,-0.3843,-0.3844,0,0,0,0,0,0,-0.3795,-0.3794,-0.3805,-0.3805,-0.3789,-0.3786,-0.3785,-0.3789,-0.3783,-0.3781,-0.3777,-0.3774,-0.3775,-0.3776,-0.3777,-0.3811,-0.3773,-0.3774,-0.3775,-0.3842,-0.3843,-0.3845,0,0,0,0,0,0,-0.3795,-0.3796,-0.3806,-0.3799,-0.38,-0.3787,-0.3792,-0.379,-0.3792,-0.3782,-0.378,-0.3781,-0.3774,-0.3775,-0.3793,-0.3811,-0.3775,-0.3776,-0.384,-0.3842,-0.3844,-0.388,0,0,0,0,0,0,-0.3794,-0.3796,-0.3807,-0.3799,-0.38,-0.3822,-0.3793,-0.379,-0.3793,-0.379,-0.3786,-0.3784,-0.3774,-0.3792,-0.3794,-0.3812,-0.3776,-0.3839,-0.3841,-0.3843,-0.3877,-0.3883,-0.3888,0,0,0,0,0,-0.3794,-0.3817,-0.3807,-0.3809,-0.3813,-0.3823,-0.3823,-0.381,-0.3795,-0.3806,-0.3799,-0.3784,-0.3808,-0.3794,-0.3796,-0.3814,-0.3838,-0.3841,-0.3843,-0.3875,-0.3882,-0.3888,0,0,0,0,0,0,-0.3828,-0.3816,-0.3805,-0.3827,-0.3826,-0.3817,-0.3831,-0.3817,-0.3821,-0.3818,-0.3802,-0.3802,-0.3822,-0.3819,-0.3804,-0.3842,-0.382,-0.3824,-0.3844,-0.385,-0.3855,-0.3857,-0.3777,0,0,0,0,0,-0.3838,-0.3846,-0.3835,-0.3856,-0.3856,-0.3843,-0.3847,-0.3837,-0.3835,-0.3835,-0.383,-0.383,-0.3838,-0.3843,-0.385,-0.3876,-0.3876,-0.3889,-0.3895,-0.3899,-0.3903,-0.3918,-0.3925,-0.3854,-0.3854,-0.3854,0,0,-0.3859,-0.3853,-0.386,-0.3862,-0.386,-0.387,-0.3843,-0.3855,-0.3862,-0.3837,-0.3854,-0.385,-0.3849,-0.3872,-0.3881,-0.387,-0.3922,-0.3903,-0.3906,-0.3908,-0.3922,-0.3929,-0.3935,-0.3856,-0.3855,-0.3855,0,0,-0.3903,-0.3898,-0.3915,-0.3914,-0.3911,-0.3902,-0.3906,-0.39,-0.3896,-0.3912,-0.3894,-0.3903,-0.3916,-0.3916,-0.3918,-0.3961,-0.3948,-0.3963,-0.3992,-0.4007,-0.4013,-0.4018,-0.4035,-0.4041,-0.3967,-0.3967,-0.3967,0,-0.393,-0.3943,-0.3926,-0.3939,-0.3941,-0.3917,-0.3935,-0.3935,-0.3934,-0.3937,-0.3924,-0.394,-0.3937,-0.396,-0.3971,-0.3972,-0.3978,-0.3965,-0.4013,-0.4018,-0.4022,-0.4039,-0.4045,-0.3969,-0.3969,-0.3968,-0.3968,0,-0.3977,-0.3987,-0.4001,-0.4001,-0.4004,-0.4019,-0.4006,-0.4011,-0.4,-0.3993,-0.401,-0.4006,-0.4012,-0.4016,-0.4005,-0.4038,-0.4031,-0.4015,-0.3994,-0.4031,-0.4047,-0.4053,-0.3972,-0.3971,-0.3971,-0.397,0,0,-0.4045,-0.4034,-0.404,-0.404,-0.4034,-0.4042,-0.4056,-0.4061,-0.4067,-0.4066,-0.4079,-0.409,-0.4076,-0.4078,-0.4067,-0.408,-0.4117,-0.4063,-0.4063,-0.4075,-0.4154,-0.4168,-0.4175,-0.4107,-0.4108,-0.4108,-0.4155,0,-0.4089,-0.4112,-0.4097,-0.4124,-0.4133,-0.411,-0.4123,-0.4121,-0.4115,-0.4122,-0.4115,-0.4124,-0.4103,-0.4105,-0.4116,-0.411,-0.4133,-0.4106,-0.412,-0.4121,-0.4124,-0.4183,-0.4198,-0.4242,-0.4161,-0.4162,-0.4162,0,-0.4144,-0.4146,-0.4173,-0.4166,-0.417,-0.4181,-0.4185,-0.4191,-0.4189,-0.4184,-0.4186,-0.4171,-0.4186,-0.4162,-0.4183,-0.4165,-0.4169,-0.4167,-0.4168,-0.4172,-0.4146,-0.4191,-0.4255,-0.4263,-0.4171,-0.4171,-0.417,0,-0.4193,-0.4203,-0.4221,-0.4221,-0.4213,-0.4222,-0.4219,-0.4215,-0.4219,-0.4222,-0.4224,-0.4229,-0.4232,-0.4236,-0.4224,-0.4207,-0.4247,-0.4222,-0.4244,-0.4245,-0.4256,-0.4256,-0.4326,-0.4255,-0.4255,-0.4254,-0.4254,0,-0.4246,-0.4264,-0.4243,-0.4254,-0.4274,-0.4256,-0.4277,-0.4271,-0.4268,-0.4279,-0.4258,-0.4269,-0.425,-0.4259,-0.425,-0.4269,-0.427,-0.4267,-0.4265,-0.4271,-0.4272,-0.4276,-0.4274,-0.4256,-0.4256,-0.4255,-0.4255,0,-0.4306,-0.4292,-0.4311,-0.4301,-0.4298,-0.4314,-0.4306,-0.4317,-0.4308,-0.4321,-0.4324,-0.4311,-0.432,-0.4307,-0.4315,-0.4309,-0.4337,-0.4328,-0.4338,-0.4336,-0.4361,-0.436,-0.4438,-0.4448,-0.4368,-0.4368,-0.4369,0,-0.4342,-0.4355,-0.4347,-0.4352,-0.435,-0.4359,-0.4362,-0.4344,-0.4349,-0.4348,-0.4359,-0.4366,-0.4372,-0.4388,-0.438,-0.4386,-0.438,-0.4406,-0.4381,-0.4386,-0.4383,-0.4384,-0.4386,-0.4413,-0.4414,-0.4414,-0.4415,0,-0.4408,-0.44,-0.4406,-0.4409,-0.4414,-0.4416,-0.4416,-0.4422,-0.4403,-0.441,-0.4419,-0.4423,-0.4431,-0.4439,-0.4443,-0.4441,-0.4426,-0.4423,-0.4429,-0.4437,-0.4442,-0.4442,-0.4355,-0.4422,-0.4421,-0.4421,-0.442,-0.442,-0.4459,-0.447,-0.4466,-0.4473,-0.4471,-0.4472,-0.4482,-0.4474,-0.4481,-0.4486,-0.4474,-0.4487,-0.4484,-0.4488,-0.4487,-0.4497,-0.4486,-0.4494,-0.4497,-0.45,-0.4505,-0.4438,-0.4497,-0.4497,-0.4497,-0.4497,-0.4497,0,-0.4526,-0.4522,-0.4528,-0.4529,-0.4535,-0.4518,-0.4518,-0.4524,-0.4535,-0.4533,-0.4539,-0.4549,-0.4557,-0.4549,-0.4555,-0.4565,-0.4558,-0.4568,-0.4568,-0.4569,-0.4513,-0.4509,-0.4573,-0.4573,-0.4573,-0.4573,-0.4573,-0.4573,-0.4562,-0.4581,-0.4573,-0.4591,-0.4586,-0.4597,-0.4599,-0.46,-0.4599,-0.4612,-0.4618,-0.4611,-0.4608,-0.4614,-0.462,-0.4618,-0.4622,-0.4635,-0.463,-0.458,-0.4572,-0.4565,-0.4561,-0.4635,-0.4635,-0.4685,-0.4685,-0.4686]}]]